Location: Haulchin
(50.3172°N, 3.4360°E)
Time: 13:03:25
(UTC+00:00)

Lacrosse 5 rocket - Pass Details

Date: 23 May 2024
Orbit: 445 x 572 km, 57.0° (Epoch: 18 June)

Event Time Altitude Azimuth Distance (km) Brightness Sun altitude
Rises 02:58:22 0° 292° (WNW) 2,707 4.6 -7.0°
Reaches altitude 10° 03:01:34 10° 267° (W) 1,780 3.5 -6.6°
Maximum altitude 03:03:35 14° 236° (SW) 1,538 3.0 -6.4°
Drops below altitude 10° 03:05:35 10° 205° (SSW) 1,733 3.3 -6.2°
Sets 03:08:37 0° 179° (S) 2,579 4.3 -5.8°
